sat.trackr.live / text

‹ back to catalog

STARLINK-34136

NORAD 64112 · 2025-110S

PAYLOAD ACTIVE UNKNOWN

§ Identity

Operator
Country
US
Launch date
2025-05-23
Launch site
AFWTR
Launch vehicle
Mass (kg)
RCS (m²)

Purposes: comms

External: N2YO · Heavens-Above · Gunter

§ Orbital elements

Epoch: 2026-05-24T22:54:18.723168Z

Period
94.01 min
Inclination
53.1611°
Eccentricity
0.0001311
Mean motion
15.31711676 rev/d
Perigee alt
469.8 km
Apogee alt
471.6 km
Semi-major
6,848.8 km
B*
3.6696e-4
RAAN
32.1866°
Arg perigee
99.4798°
Mean anomaly
260.6352°
Rev number
5,756

§ Raw data

STARLINK-341361 64112U 25110S   26144.95438337  .00011043  00000+0  36696-3 0  99932 64112  53.1611  32.1866 0001311  99.4798 260.6352 15.31711676 57566

JSON: /api/v1/satellites/64112 · /tle

For live sub-satellite position, see the globe view (requires WebGL).

§ Visibility from observer

Set your observer location to see the next 7 days of passes ≥ 10°. The values pass through the URL so the page stays shareable.

No JS? Fill the form by hand. The geolocation button needs JavaScript.